This is the latest recevied weather packets stored in our database for station/object VA7SCH-13. If no packets are shown the sender has not sent any weather packets the latest 10 day(s).
| Time | Temp. | Humidity | Pressure | Rain* | Wind** | Luminosity | Snow |
|---|---|---|---|---|---|---|---|
| 1778248530 | 11.11° C | 62% | 1016.5 hPa | 0 mm | - | - | - |
| 1778246130 | 10.56° C | 62% | 1015.4 hPa | 0 mm | - | - | - |
| 1778245530 | 10.56° C | 61% | 1016.4 hPa | 0 mm | - | - | - |
| 1778240129 | 11.11° C | 57% | 1016.6 hPa | 0 mm | - | - | - |
| 1778239529 | 11.11° C | 56% | 1015.5 hPa | 0 mm | - | - | - |
| 1778238329 | 11.11° C | 55% | 1016.5 hPa | 0 mm | - | - | - |
| 1778237149 | 11.67° C | 54% | 1015.4 hPa | 0 mm | - | - | - |
| 1778230529 | 13.89° C | 46% | 1015.6 hPa | 0 mm | - | - | - |
| 1778228729 | 14.44° C | 43% | 1015.6 hPa | 0 mm | - | - | - |
| 1778228129 | 15° C | 43% | 1015.6 hPa | 0 mm | - | - | - |
| 1778221528 | 16.67° C | 39% | 1015.4 hPa | 0 mm | - | - | - |
| 1778214927 | 17.78° C | 39% | 1014.9 hPa | 0 mm | - | - | - |
| 1778211327 | 18.89° C | 38% | 1014.9 hPa | 0 mm | - | - | - |
| 1778206527 | 23.89° C | 29% | 1013.5 hPa | 0 mm | - | - | - |
| 1778205327 | 24.44° C | 28% | 1013.5 hPa | 0 mm | - | - | - |
| 1778204127 | 25° C | 25% | 1013.5 hPa | 0 mm | - | - | - |
| 1778199347 | 26.11° C | 24% | 1014.7 hPa | 0 mm | - | - | - |
| 1778198726 | 26.11° C | 25% | 1014.6 hPa | 0 mm | - | - | - |
| 1778195747 | 26.67° C | 24% | 1015 hPa | 0 mm | - | - | - |
| 1778195126 | 26.67° C | 24% | 1015 hPa | 0 mm | - | - | - |
| 1778194527 | 26.67° C | 24% | 1016.1 hPa | 0 mm | - | - | - |
| 1778190947 | 26.11° C | 25% | 1016.2 hPa | 0 mm | - | - | - |
| 1778188547 | 25.56° C | 25% | 1017.4 hPa | 0 mm | - | - | - |
| 1778186725 | 26.11° C | 25% | 1017.5 hPa | 0 mm | - | - | - |
| 1778183727 | 25° C | 26% | 1018.7 hPa | 0 mm | - | - | - |
* Rain latest hour (hover to see other rain measurements)
** Current wind speed in m/s (hover to see current wind gust speed)